This is the latest recevied weather packets stored in our database for station/object DH7LK-5. If no packets are shown the sender has not sent any weather packets the latest 1 day(s).
| Time | Temp. | Humidity | Pressure | Rain* | Wind** | Luminosity | Snow |
|---|---|---|---|---|---|---|---|
| 1778012125 | 15° C | 89% | 1007.3 hPa | 0.25 mm | 2.24 m/s, 65° | - | - |
| 1778010325 | 16.11° C | 86% | 1007.2 hPa | 0.25 mm | 2.24 m/s, 70° | - | - |
| 1778008524 | 16.11° C | 85% | 1007.3 hPa | 0.25 mm | 1.79 m/s, 68° | - | - |
| 1778006723 | 16.67° C | 85% | 1007.1 hPa | 0.25 mm | 1.79 m/s, 3° | - | - |
| 1778004922 | 17.22° C | 84% | 1006.9 hPa | 0.25 mm | 1.79 m/s, 69° | - | - |
| 1778003122 | 17.78° C | 81% | 1007.2 hPa | 0.25 mm | 1.34 m/s, 1° | - | - |
| 1778001321 | 17.78° C | 78% | 1007.2 hPa | 0.25 mm | 1.79 m/s, 353° | - | - |
| 1777999520 | 18.33° C | 76% | 1007.3 hPa | 0.25 mm | 1.34 m/s, 7° | - | - |
| 1777997720 | 18.89° C | 75% | 1007.5 hPa | 0.25 mm | 0.89 m/s, 11° | - | - |
| 1777995918 | 18.89° C | 74% | 1007.7 hPa | 0.25 mm | 0.89 m/s, 340° | - | - |
| 1777994117 | 19.44° C | 73% | 1007.8 hPa | 0 mm | 0.45 m/s, 66° | - | - |
| 1777992316 | 20° C | 73% | 1007.9 hPa | 0 mm | 1.34 m/s, 17° | - | - |
| 1777990515 | 19.44° C | 69% | 1007.8 hPa | 0 mm | 1.34 m/s, 339° | - | - |
| 1777988715 | 20.56° C | 68% | 1008 hPa | 0 mm | 1.79 m/s, 108° | - | - |
| 1777986912 | 20° C | 67% | 1008.2 hPa | 0 mm | 1.79 m/s, 107° | - | - |
| 1777985111 | 20.56° C | 67% | 1008.5 hPa | 0 mm | 0.45 m/s, 270° | - | - |
| 1777983311 | 20° C | 67% | 1008.7 hPa | 0 mm | 0.89 m/s, 215° | - | - |
| 1777981510 | 19.44° C | 74% | 1008.8 hPa | 0 mm | 0.45 m/s, 353° | - | - |
| 1777979709 | 18.89° C | 77% | 1008.9 hPa | 0 mm | 1.79 m/s, 115° | - | - |
| 1777977906 | 18.33° C | 80% | 1009.2 hPa | 0 mm | 0.45 m/s, 132° | - | - |
| 1777976106 | 17.78° C | 81% | 1009.3 hPa | 0 mm | 0.89 m/s, 120° | - | - |
| 1777974305 | 17.22° C | 83% | 1009.2 hPa | 0 mm | 0.89 m/s, 124° | - | - |
| 1777972503 | 17.22° C | 84% | 1009.1 hPa | 0 mm | 0.45 m/s, 65° | - | - |
| 1777970702 | 16.67° C | 84% | 1009.3 hPa | 0 mm | 0 m/s | - | - |
| 1777968901 | 16.67° C | 83% | 1009.5 hPa | 0 mm | 0 m/s | - | - |
* Rain since midnight (hover to see other rain measurements)
** Current wind speed in m/s (hover to see current wind gust speed)